• In Belarus
  • List of Countries
  • For 7 days
  • Water Temperature
  • Satellite Maps
  • Weather Map
  • Weather Widgets
  • user-avatar
    Login

    Hourly Weather Tobol'sk

    Today, 23 October, Tuesday

    Time Temperature Precipitation Wind Pressure Humidity
    00:00 -2°C° 0.1 mm 4 mps 757 mmHg 74%
    01:00 -2°C° 0.1 mm 4 mps 756 mmHg 77%
    02:00 -2°C° 0.1 mm 4 mps 756 mmHg 81%
    03:00 -2°C° 0.3 mm 4 mps 755 mmHg 80%
    04:00 -2°C° 0.3 mm 5 mps 755 mmHg 80%
    05:00 -2°C° 0 mm 5 mps 754 mmHg 80%
    06:00 -2°C° 0.4 mm 5 mps 753 mmHg 81%
    07:00 -1°C° 0.4 mm 5 mps 753 mmHg 82%
    08:00 -1°C° 0.4 mm 5 mps 753 mmHg 83%
    09:00 -1°C° 0.3 mm 5 mps 752 mmHg 81%
    10:00 0°C° 0.3 mm 5 mps 752 mmHg 80%
    11:00 0°C° 0 mm 5 mps 751 mmHg 77%
    12:00 +1°C° 0 mm 5 mps 751 mmHg 76%
    13:00 +1°C° 0 mm 5 mps 751 mmHg 75%
    14:00 +2°C° 0 mm 5 mps 751 mmHg 74%
    15:00 +3°C° 0 mm 4 mps 751 mmHg 77%
    16:00 +1°C° 0 mm 4 mps 751 mmHg 79%
    17:00 +2°C° 0 mm 3 mps 751 mmHg 82%
    18:00 +2°C° 0 mm 3 mps 751 mmHg 84%
    19:00 +1°C° 0 mm 3 mps 752 mmHg 86%
    20:00 +1°C° 0 mm 3 mps 752 mmHg 88%
    21:00 +1°C° 0 mm 3 mps 752 mmHg 89%
    22:00 +1°C° 0 mm 3 mps 752 mmHg 90%
    23:00 0°C° 0 mm 3 mps 752 mmHg 92%

    Tomorrow, 24 October, Wednesday

    Time Temperature Precipitation Wind Pressure Humidity
    00:00 +1°C° 0 mm 3 mps 752 mmHg 93%
    01:00 +1°C° 0 mm 3 mps 752 mmHg 93%
    02:00 +1°C° 0 mm 3 mps 752 mmHg 94%
    03:00 +2°C° 0 mm 3 mps 752 mmHg 94%
    04:00 +1°C° 0 mm 4 mps 752 mmHg 94%
    05:00 +3°C° 0 mm 4 mps 752 mmHg 94%
    06:00 +3°C° 0.1 mm 4 mps 752 mmHg 93%
    07:00 +1°C° 0.1 mm 4 mps 751 mmHg 92%
    08:00 +1°C° 0.1 mm 4 mps 751 mmHg 92%
    09:00 +3°C° 0 mm 4 mps 751 mmHg 86%
    10:00 +4°C° 0 mm 4 mps 751 mmHg 80%
    11:00 +5°C° 0 mm 5 mps 751 mmHg 75%
    12:00 +5°C° 0 mm 5 mps 751 mmHg 74%
    13:00 +5°C° 0 mm 4 mps 751 mmHg 74%
    14:00 +6°C° 0 mm 4 mps 751 mmHg 73%
    15:00 +5°C° 0 mm 4 mps 751 mmHg 77%
    16:00 +5°C° 0 mm 3 mps 751 mmHg 81%
    17:00 +4°C° 0 mm 3 mps 752 mmHg 85%
    18:00 +4°C° 0 mm 3 mps 752 mmHg 87%
    19:00 +4°C° 0 mm 3 mps 752 mmHg 89%
    20:00 +4°C° 0 mm 3 mps 752 mmHg 91%
    21:00 +4°C° 0 mm 3 mps 752 mmHg 92%
    22:00 +4°C° 0 mm 3 mps 753 mmHg 92%
    23:00 +4°C° 0 mm 3 mps 753 mmHg 93%

    Day after tomorrow, 25 October, Thursday

    Time Temperature Precipitation Wind Pressure Humidity
    00:00 +4°C° 0 mm 3 mps 753 mmHg 92%
    01:00 +4°C° 0 mm 3 mps 753 mmHg 92%
    02:00 +4°C° 0 mm 3 mps 753 mmHg 92%
    03:00 +4°C° 0 mm 3 mps 753 mmHg 90%
    04:00 +3°C° 0 mm 3 mps 753 mmHg 89%
    05:00 +3°C° 0 mm 3 mps 754 mmHg 88%
    06:00 +2°C° 0 mm 3 mps 754 mmHg 86%
    07:00 +2°C° 0 mm 3 mps 754 mmHg 85%
    08:00 +1°C° 0 mm 3 mps 754 mmHg 84%
    09:00 +2°C° 0 mm 3 mps 754 mmHg 81%
    10:00 +3°C° 0 mm 3 mps 754 mmHg 78%
    11:00 +4°C° 0 mm 3 mps 754 mmHg 76%
    12:00 +5°C° 0 mm 3 mps 755 mmHg 75%
    13:00 +7°C° 0 mm 3 mps 755 mmHg 74%
    14:00 +8°C° 0 mm 3 mps 755 mmHg 73%
    15:00 +7°C° 0 mm 3 mps 755 mmHg 77%
    16:00 +5°C° 0 mm 3 mps 755 mmHg 81%
    17:00 +5°C° 0 mm 2 mps 755 mmHg 86%
    18:00 +4°C° 0 mm 3 mps 755 mmHg 86%
    19:00 +4°C° 0 mm 3 mps 755 mmHg 86%
    20:00 +4°C° 0 mm 3 mps 756 mmHg 87%
    21:00 +4°C° 0 mm 3 mps 756 mmHg 86%
    22:00 +4°C° 0 mm 3 mps 756 mmHg 86%
    23:00 +4°C° 0 mm 3 mps 756 mmHg 85%

    26 October, Friday

    Time Temperature Precipitation Wind Pressure Humidity
    00:00 +4°C° 0 mm 4 mps 755 mmHg 84%
    01:00 +4°C° 0 mm 4 mps 755 mmHg 82%
    02:00 +4°C° 0 mm 4 mps 755 mmHg 80%
    03:00 +4°C° 0 mm 4 mps 755 mmHg 80%
    04:00 +4°C° 0 mm 4 mps 755 mmHg 79%
    05:00 +4°C° 0 mm 4 mps 755 mmHg 78%
    06:00 +4°C° 0 mm 4 mps 755 mmHg 77%
    07:00 +4°C° 0 mm 4 mps 754 mmHg 77%
    08:00 +4°C° 0 mm 4 mps 754 mmHg 76%
    09:00 +6°C° 0 mm 4 mps 754 mmHg 70%
    10:00 +7°C° 0 mm 5 mps 754 mmHg 65%
    11:00 +8°C° 0 mm 5 mps 754 mmHg 59%
    12:00 +9°C° 0 mm 5 mps 753 mmHg 57%
    13:00 +10°C° 0 mm 5 mps 753 mmHg 55%
    14:00 +10°C° 0 mm 5 mps 753 mmHg 54%
    15:00 +10°C° 0 mm 5 mps 752 mmHg 56%
    16:00 +9°C° 0 mm 5 mps 752 mmHg 59%
    17:00 +8°C° 0 mm 5 mps 751 mmHg 62%
    18:00 +7°C° 0 mm 5 mps 751 mmHg 63%
    19:00 +7°C° 0 mm 5 mps 751 mmHg 64%
    20:00 +7°C° 0 mm 5 mps 750 mmHg 65%
    21:00 +6°C° 0 mm 5 mps 750 mmHg 67%
    22:00 +6°C° 0 mm 4 mps 750 mmHg 68%
    23:00 +6°C° 0 mm 4 mps 749 mmHg 70%

    27 October, Saturday

    Time Temperature Precipitation Wind Pressure Humidity
    00:00 +6°C° 0 mm 4 mps 749 mmHg 70%
    01:00 +6°C° 0 mm 4 mps 748 mmHg 71%
    02:00 +6°C° 0 mm 4 mps 747 mmHg 72%
    03:00 +6°C° 0 mm 4 mps 747 mmHg 72%
    04:00 +5°C° 0 mm 4 mps 747 mmHg 73%
    05:00 +5°C° 0 mm 4 mps 747 mmHg 74%
    06:00 +5°C° 0.4 mm 4 mps 746 mmHg 78%
    07:00 +5°C° 0.4 mm 4 mps 746 mmHg 82%
    08:00 +5°C° 0.4 mm 4 mps 746 mmHg 86%
    09:00 +7°C° 0.1 mm 3 mps 746 mmHg 87%
    10:00 +7°C° 0.1 mm 3 mps 746 mmHg 89%
    11:00 +7°C° 0.1 mm 3 mps 747 mmHg 91%
    12:00 +7°C° 0.4 mm 3 mps 747 mmHg 91%
    13:00 +7°C° 0.4 mm 2 mps 747 mmHg 92%
    14:00 +7°C° 0.4 mm 2 mps 747 mmHg 93%
    15:00 +7°C° 0.3 mm 2 mps 747 mmHg 92%
    16:00 +7°C° 0.3 mm 2 mps 748 mmHg 91%
    17:00 +6°C° 0.3 mm 2 mps 748 mmHg 90%
    18:00 +6°C° 0 mm 2 mps 748 mmHg 89%
    19:00 +5°C° 0 mm 2 mps 748 mmHg 88%
    20:00 +5°C° 0 mm 2 mps 749 mmHg 87%
    21:00 +4°C° 0 mm 2 mps 749 mmHg 87%
    22:00 +4°C° 0 mm 2 mps 749 mmHg 87%
    23:00 +3°C° 0 mm 2 mps 749 mmHg 88%

    28 October, Sunday

    Time Temperature Precipitation Wind Pressure Humidity
    00:00 +3°C° 0 mm 2 mps 750 mmHg 89%
    01:00 +2°C° 0 mm 2 mps 750 mmHg 90%
    02:00 +1°C° 0 mm 2 mps 750 mmHg 91%
    03:00 +1°C° 0 mm 2 mps 750 mmHg 90%
    04:00 +1°C° 0 mm 2 mps 750 mmHg 89%
    05:00 +1°C° 0 mm 2 mps 750 mmHg 89%
    06:00 +1°C° 0 mm 2 mps 750 mmHg 88%
    07:00 -1°C° 0 mm 2 mps 751 mmHg 88%
    08:00 -1°C° 0 mm 2 mps 751 mmHg 87%
    09:00 +1°C° 0 mm 2 mps 751 mmHg 83%
    10:00 +1°C° 0 mm 3 mps 751 mmHg 80%
    11:00 +2°C° 0 mm 3 mps 751 mmHg 76%
    12:00 +2°C° 0 mm 3 mps 750 mmHg 74%
    13:00 +3°C° 0 mm 3 mps 750 mmHg 71%
    14:00 +3°C° 0 mm 4 mps 750 mmHg 69%
    15:00 +2°C° 0 mm 3 mps 750 mmHg 73%
    16:00 +2°C° 0 mm 3 mps 750 mmHg 78%
    17:00 +2°C° 0 mm 2 mps 750 mmHg 82%
    18:00 +1°C° 0 mm 3 mps 749 mmHg 81%
    19:00 +1°C° 0 mm 3 mps 749 mmHg 80%
    20:00 +1°C° 0 mm 3 mps 748 mmHg 79%
    21:00 +1°C° 0.6 mm 3 mps 748 mmHg 81%
    22:00 +1°C° 0.6 mm 3 mps 747 mmHg 82%
    23:00 +2°C° 0.6 mm 3 mps 746 mmHg 84%

    29 October, Monday

    Time Temperature Precipitation Wind Pressure Humidity
    00:00 +2°C° 0.3 mm 3 mps 746 mmHg 86%
    01:00 +2°C° 0.3 mm 3 mps 745 mmHg 88%
    02:00 +3°C° 0.3 mm 2 mps 745 mmHg 91%
    03:00 +2°C° 0.1 mm 3 mps 745 mmHg 92%
    04:00 +2°C° 0.1 mm 3 mps 745 mmHg 93%
    05:00 +2°C° 0.1 mm 3 mps 745 mmHg 93%
    06:00 +2°C° 0.4 mm 3 mps 745 mmHg 93%
    07:00 +2°C° 0.4 mm 3 mps 745 mmHg 92%
    08:00 +1°C° 0.4 mm 4 mps 746 mmHg 91%
    09:00 +1°C° 0.2 mm 4 mps 746 mmHg 89%
    10:00 +1°C° 0.2 mm 4 mps 747 mmHg 88%
    11:00 +1°C° 0.2 mm 4 mps 748 mmHg 86%
    12:00 +1°C° 0.2 mm 4 mps 748 mmHg 85%
    13:00 +1°C° 0.2 mm 4 mps 749 mmHg 84%
    14:00 +1°C° 0.2 mm 4 mps 750 mmHg 83%
    15:00 +1°C° 0.2 mm 4 mps 751 mmHg 83%
    16:00 +1°C° 0.2 mm 4 mps 752 mmHg 83%
    17:00 0°C° 0.2 mm 4 mps 753 mmHg 83%
    18:00 0°C° 0 mm 4 mps 753 mmHg 83%
    19:00 -1°C° 0 mm 4 mps 754 mmHg 84%
    20:00 0°C° 0 mm 3 mps 754 mmHg 84%
    21:00 0°C° 0.1 mm 3 mps 754 mmHg 85%
    22:00 0°C° 0.1 mm 3 mps 755 mmHg 86%
    23:00 -1°C° 0.1 mm 4 mps 755 mmHg 87%
    Show more